Regional Weather Roundup
Issued by NWS

Home | Current Version | Previous Version | Graphics & Text | Print | Product List | Glossary Off
Versions: 1 2 3 4 5 6 7 8 9 10 11 12 13 14 15 16 17 18 19 20 21 22 23 24 25 26 27 28 29 30 31 32 33 34 35 36 37 38 39 40 41 42 43 44 45 46 47 48 49 50

000
ASUS43 KTOP 062259
RWRKS

WEATHER ROUNDUP FOR KANSAS
NATIONAL WEATHER SERVICE GOODLAND KS
500 PM CST FRI MAR 06 2015

NOTE:  "FAIR" INDICATES FEW OR NO CLOUDS BELOW 12,000 FEET WITH NO
SIGNIFICANT WEATHER AND/OR OBSTRUCTIONS TO VISIBILITY.

KSZ001>006-013>018-027>032-041>047-070000-
NORTHWEST KANSAS

CITY           SKY/WX    TMP DP  RH WIND       PRES   REMARKS
GOODLAND       SUNNY     59  16  18 W14       30.21F
HAYS           SUNNY     66  16  14 W17G24    30.19S
HILL CITY      SUNNY     65  14  14 NW13      30.18F
RUSSELL        SUNNY     66  15  14 W15       30.17F
$$

KSZ061>065-074>080-084>089-070000-
SOUTHWEST KANSAS

CITY           SKY/WX    TMP DP  RH WIND       PRES   REMARKS
DODGE CITY     SUNNY     62  15  16 W12       30.24F
ELKHART          N/A     61  22  22 S8          N/A
GARDEN CITY    SUNNY     60  15  17 S7        30.23F
GREAT BEND     SUNNY     64  18  16 W9        30.20F
LIBERAL        SUNNY     61  21  21 S5        30.26F
$$

KSZ066>073-081>083-090>101-070000-
SOUTHEAST KANSAS

CITY           SKY/WX    TMP DP  RH WIND       PRES   REMARKS
CHANUTE        SUNNY     58  27  30 SW14      30.28F
COFFEYVILLE    SUNNY     58  26  29 SW14      30.30F
HUTCHINSON     SUNNY     63  25  23 SW12      30.23F
MEDICINE LODGE   N/A     64  24  21 SW12      30.24S
NEWTON         SUNNY     57  28  33 SW16      30.26F
PARSONS        SUNNY     58  27  30 SW15G21   30.30F
WICHITA INTL   SUNNY     61  24  24 SW14      30.25F
WICHITA JABRA  SUNNY     59  24  26 SW16      30.26S
WICHITA MCCONL SUNNY     60  26  27 S15       30.26S
WINFIELD       SUNNY     57  28  33 SW18      30.29F
$$

KSZ007>012-019>026-033>040-048>060-102>105-070000-
NORTHEAST KANSAS

CITY           SKY/WX    TMP DP  RH WIND       PRES   REMARKS
CONCORDIA      SUNNY     63  17  17 W18       30.16F
EMPORIA        SUNNY     58  27  30 SW13      30.23F
LAWRENCE       SUNNY     60  20  21 SW15      30.21F
MANHATTAN      SUNNY     64  16  15 W10       30.18F
OLATHE IND     SUNNY     58  24  27 SW14      30.23F
OLATHE EXE     SUNNY     58  23  26 W10G16    30.22F
SALINA         SUNNY     66  15  14 W13       30.19F
TOPEKA BILLARD SUNNY     61  18  18 W12       30.20F
TOPEKA FORBES  SUNNY     61  21  21 SW15      30.21F
$$



USA.gov is the U.S. government's official web portal to all federal, state and local government web resources and services.